#timestamp,LO_Frequency,Hit,StdDev 
1691726415.5,286047003.9,Y
1691726435.4,286047002.7,P
1691726455.2,286047002.8,P
1691726475.0,286047002.4,P
1691726475.9,286047002.4,Y
1691726495.8,286046998.4,P
1691726515.6,286047001.0,N
1691726535.5,286046997.1,N
1691726555.3,286046996.8,N
1691726575.2,286046997.6,N
1691726595.9,286046997.7,N
1691726615.7,286046994.9,N
1691726635.6,286046997.9,N
1691726655.4,286046996.1,N
1691726675.2,286046994.7,N
1691726695.1,286046994.0,N
1691726696.0,286046994.0,N
1691726715.8,286046993.5,N
1691726735.7,286046996.3,N
1691726755.5,286046995.1,N
1691726775.3,286046995.3,N
1691726795.2,286046995.4,N
1691726815.0,286046996.0,N
1691726815.9,286046996.0,N
1691726835.7,286046998.0,N
1691726855.6,286046994.9,N
1691726875.4,286046998.0,N
1691726895.3,286046996.7,N
1691726915.1,286046997.8,N
1691726916.0,286046997.8,N
1691726935.8,286046996.7,N
1691726955.7,286046997.8,N
1691726975.5,286046997.6,N
1691726995.3,286046996.8,N
1691727015.2,286046996.9,N
1691727035.0,286046997.3,N
1691727035.9,286046997.3,N
1691727055.8,286046997.4,N
1691727075.6,286046999.6,N
1691727095.4,286046996.8,N
1691727115.3,286046997.0,N
1691727135.1,286046999.6,N
1691727155.8,286046997.0,N
1691727175.7,286046995.0,Y
1691727195.5,286046998.7,P
1691727215.4,286046999.3,N
1691727235.2,286046998.4,N
1691727255.0,286047000.9,N
1691727255.9,286047000.9,N
1691727275.8,286047000.1,N
1691727295.6,286047002.6,N
1691727315.5,286047011.9,Y
1691727335.3,286046999.7,P
1691727355.1,286047000.6,P
1691727375.9,286047000.8,N
1691727395.4,286046998.5,Y
1691727415.3,286046999.4,P
1691727435.1,286046996.9,P
1691727436.0,286046996.9,N
1691727455.8,286046997.6,N
1691727475.7,286046997.7,N
1691727495.5,286046999.6,N
1691727515.3,286046998.9,N
1691727535.2,286046998.5,N
1691727555.0,286047000.4,N
1691727555.9,286047000.4,N
1691727575.8,286047001.1,N
1691727595.6,286046998.1,N
1691727615.4,286046997.0,N
1691727635.3,286046997.0,N
1691727655.1,286046998.4,N
1691727675.8,286046998.4,N
1691727695.7,286047000.8,N
1691727715.5,286046999.9,N
1691727735.4,286047001.1,N
1691727755.2,286046996.9,N
1691727775.0,286046999.5,N
1691727775.9,286046999.5,N
1691727795.8,286047000.7,N
1691727815.6,286047001.2,N
1691727835.4,286047000.5,N
1691727855.3,286047000.5,N
1691727875.1,286047000.6,N
1691727895.9,286047000.7,N
1691727915.7,286047000.3,N
1691727935.5,286047002.5,N
1691727955.4,286047003.8,N
1691727975.2,286047003.1,N
1691727995.0,286047004.4,N
1691727995.9,286047004.4,N
1691728015.8,286047003.3,N
1691728035.6,286047003.1,N
1691728055.5,286047003.4,N
1691728075.3,286047005.4,N
1691728095.1,286047006.0,N
1691728115.9,286047005.4,N
1691728135.7,286047005.6,N
1691728155.5,286047005.3,N
1691728175.4,286047005.6,N
1691728195.2,286047004.2,N
1691728215.1,286047001.7,N
1691728216.0,286047001.7,N
1691728235.8,286047004.3,N
1691728255.6,286047004.3,N
1691728275.5,286047002.6,N
1691728295.3,286047002.4,N
1691728315.1,286047002.8,N
1691728335.9,286047002.4,N
1691728355.7,286047002.2,N
1691728375.6,286047002.3,N
1691728395.4,286047002.3,N
1691728415.2,286047004.4,N
1691728435.1,286047004.2,N
1691728436.0,286047004.2,N
1691728455.8,286046999.9,N
1691728475.7,286047002.6,N
1691728495.5,286047001.9,N
1691728515.3,286047002.8,N
1691728535.2,286047002.7,N
1691728555.0,286047002.5,N
1691728555.9,286047002.5,N
1691728575.8,286047000.6,N
1691728595.6,286047000.1,N
1691728615.4,286047000.0,N
1691728635.3,286047000.5,N
1691728655.1,286047000.3,N
1691728675.9,286047002.8,N
1691728695.7,286047000.5,N
1691728715.5,286046999.7,N
1691728735.4,286047000.0,N
1691728755.2,286047000.6,N
1691728775.0,286047000.7,N
1691728776.0,286047000.7,N
1691728795.8,286047000.3,N
1691728815.6,286046998.6,N
1691728835.5,286046998.1,N
1691728855.3,286046998.8,N
1691728875.2,286046999.0,N
1691728925.9,286046998.7,E
1691728935.8,286046998.7,N
1691728955.7,286047000.7,P
1691728975.5,286047001.1,N
1691728995.4,286046998.6,N
1691729015.2,286046998.6,N
1691729035.0,286046998.6,N
1691729035.9,286046998.6,N
1691729055.8,286047000.5,N
1691729075.6,286046998.8,N
1691729095.4,286046998.1,N
1691729115.3,286046998.2,N
1691729135.1,286046998.6,N
1691729155.9,286046999.0,N
1691729175.7,286046999.6,N
1691729195.5,286046999.3,N
1691729215.4,286046999.1,N
1691729235.2,286046998.5,N
1691729255.1,286046996.6,Y
1691729256.0,286046996.6,P
1691729275.8,286046998.5,N
1691729295.6,286046998.2,N
1691729315.5,286047000.7,N
1691729335.3,286047000.8,N
1691729355.1,286047001.1,N
1691729375.9,286047000.8,N
1691729395.7,286047000.8,N
1691729415.6,286047000.9,N
1691729435.4,286047000.8,N
1691729455.2,286046998.6,N
1691729475.1,286046999.0,N
1691729476.0,286046999.0,N
1691729495.8,286046998.2,N
1691729515.7,286046998.6,N
1691729535.5,286046999.4,N
1691729555.3,286046998.5,N
1691729575.2,286046998.8,N
1691729595.0,286047011.9,Y
1691729595.9,286046998.7,P
1691729615.7,286046998.9,P
1691729635.6,286047000.8,N
1691729655.4,286046998.5,N
1691729675.3,286046998.1,N
1691729695.1,286046999.5,N
1691729696.0,286046999.5,N
1691729715.8,286046999.6,N
1691729735.7,286046997.6,Y
1691729755.5,286046996.7,P
1691729775.4,286046996.5,N
1691729795.2,286046998.3,N
1691729815.0,286046998.4,N
1691729815.9,286046998.4,N
1691729835.8,286046998.3,N
1691729855.6,286046998.6,N
1691729875.4,286046998.8,N
1691729895.3,286046998.4,N
1691729915.1,286046999.2,N
1691729935.9,286046996.6,Y
1691729955.7,286046998.7,P
1691729975.5,286046998.1,P
1691729995.4,286047000.4,N
